EW6466 Weather Reports


time (UTC)temp
C
wind
direction
speed
KPH
gust
KPH
rain 1hr
cm
rain 24hr
cm
rain mn
cm
humidity
%
barometer
mb
20260507060030 15 25 14.5 27.4 0.00 0.05 0.00 87 1013.0
20260507054523 15 15 12.9 22.5 0.00 0.05 0.00 87 1013.2
20260507053018 15 32 8.0 19.3 0.00 0.05 0.00 87 1013.0
20260507051517 15 42 11.3 22.5 0.00 0.05 0.00 87 1012.4
20260507050027 15 16 9.7 17.7 0.00 0.05 0.00 87 1012.4
20260507044525 15 68 14.5 22.5 0.00 0.05 0.05 86 1011.7
20260507043007 15 48 4.8 17.7 0.00 0.05 0.05 86 1012.3
20260507041506 15 48 8.0 20.9 0.00 0.05 0.05 86 1012.1
20260507040004 15 63 6.4 16.1 0.00 0.05 0.05 86 1012.2
20260507034502 16 18 8.0 19.3 0.00 0.05 0.05 86 1012.4
20260507033102 16 71 8.0 20.9 0.00 0.05 0.05 86 1011.9
20260507031555 16 33 9.7 16.1 0.00 0.05 0.05 85 1011.8
20260507030105 16 22 11.3 22.5 0.00 0.05 0.05 85 1011.5
20260507024554 16 36 9.7 22.5 0.00 0.05 0.05 85 1011.7
20260507023048 16 59 11.3 19.3 0.00 0.05 0.05 85 1011.3
20260507021550 16 24 14.5 22.5 0.00 0.05 0.05 85 1011.0
20260507020046 16 71 8.0 20.9 0.00 0.05 0.05 85 1010.9
20260507014552 16 75 4.8 16.1 0.00 0.05 0.05 85 1010.6
20260507013037 17 10 8.0 17.7 0.00 0.05 0.05 85 1010.4
20260507011534 17 34 12.9 19.3 0.00 0.05 0.05 84 1010.2
20260507010031 17 13 9.7 22.5 0.00 0.05 0.05 84 1010.0
20260507004528 17 31 11.3 20.9 0.00 0.05 0.05 84 1009.8
20260507003025 17 64 12.9 24.1 0.00 0.05 0.05 83 1009.8
20260507001524 17 28 9.7 25.7 0.00 0.05 0.05 83 1009.4
20260507000027 17 31 11.3 20.9 0.00 0.05 0.05 82 1009.3
20260506234518 18 30 11.3 20.9 0.00 0.05 0.05 81 1009.1
20260506233015 18 24 9.7 24.1 0.00 0.05 0.05 80 1009.0
20260506231513 19 67 3.2 16.1 0.00 0.05 0.05 80 1009.1
20260506230012 20 57 8.0 22.5 0.00 0.05 0.05 79 1008.6
20260506224510 20 71 6.4 22.5 0.00 0.05 0.05 78 1008.4
20260506223009 21 54 11.3 22.5 0.00 0.05 0.05 76 1008.2
20260506221508 22 28 12.9 20.9 0.00 0.05 0.05 76 1007.8
20260506220008 22 31 11.3 20.9 0.00 0.05 0.05 75 1008.0
20260506214507 23 43 9.7 19.3 0.00 0.05 0.05 75 1008.1
20260506213013 24 32 3.2 17.7 0.00 0.05 0.05 75 1008.0
20260506211509 24 16 9.7 17.7 0.00 0.05 0.05 76 1007.9
20260506210008 23 50 9.7 19.3 0.00 0.05 0.05 77 1008.0
20260506204506 25 28 4.8 12.9 0.00 0.05 0.05 75 1008.1
20260506203003 25 34 12.9 19.3 0.00 0.05 0.05 75 1008.0
20260506201506 26 59 11.3 19.3 0.00 0.05 0.05 72 1008.2
20260506200002 26 47 4.8 9.7 0.00 0.05 0.05 73 1008.4
20260506194502 26 37 6.4 14.5 0.00 0.05 0.05 74 1008.5
20260506193058 25 30 3.2 14.5 0.00 0.05 0.05 79 1008.6
20260506191555 24 51 1.6 16.1 0.00 0.05 0.05 82 1008.8
20260506190052 23 27 4.8 14.5 0.00 0.05 0.05 82 1009.0
20260506184555 23 40 4.8 9.7 0.00 0.05 0.05 83 1009.2
20260506183050 22 41 0.0 12.9 0.00 0.05 0.05 84 1009.3
20260506181551 22 26 3.2 12.9 0.00 0.05 0.05 84 1009.1
20260506180050 21 32 4.8 14.5 0.00 0.05 0.05 85 1009.4
20260506174549 21 20 4.8 9.7 0.00 0.05 0.05 86 1009.6
20260506173107 21 20 1.6 9.7 0.00 0.05 0.05 86 1009.7
20260506171555 20 16 4.8 11.3 0.00 0.05 0.05 87 1009.4
20260506170050 20 54 3.2 14.5 0.00 0.05 0.05 87 1009.4
20260506164546 19 35 3.2 14.5 0.00 0.05 0.05 87 1009.4
20260506163059 19 38 4.8 12.9 0.03 0.05 0.05 87 1009.2
20260506161544 19 61 3.2 14.5 0.03 0.05 0.05 87 1009.1
20260506160042 19 48 8.0 16.1 0.05 0.05 0.05 87 1008.9
20260506154538 20 11 9.7 27.4 0.05 0.05 0.05 86 1008.7
20260506153038 22 196 0.0 0.0 0.03 0.03 0.03 87 1008.4
20260506151532 22 196 1.6 4.8 0.03 0.03 0.03 87 1008.3
20260506150032 22 196 0.0 0.0 0.00 0.00 0.00 87 1008.2
20260506144531 22 196 0.0 0.0 0.00 0.00 0.00 87 1008.2
20260506143030 22 196 0.0 0.0 0.00 0.00 0.00 87 1008.2
20260506141528 21 196 0.0 3.2 0.00 0.00 0.00 87 1008.1
20260506140025 21 196 1.6 8.0 0.00 0.00 0.00 87 1007.7
20260506134523 21 191 0.0 9.7 0.00 0.00 0.00 87 1007.3
20260506133021 21 150 1.6 8.0 0.00 0.00 0.00 87 1006.7
20260506131519 21 149 1.6 4.8 0.00 0.00 0.00 87 1006.4
20260506130017 21 149 1.6 4.8 0.00 0.00 0.00 87 1006.5
20260506124517 21 146 0.0 14.5 0.00 0.00 0.00 87 1006.3
20260506123015 21 171 6.4 14.5 0.00 0.00 0.00 87 1006.2
20260506121514 21 194 3.2 11.3 0.00 0.00 0.00 87 1006.1
20260506120013 21 59 4.8 19.3 0.00 0.00 0.00 87 1006.0
20260506114513 22 38 0.0 6.4 0.00 0.00 0.00 87 1006.0
20260506113015 22 259 0.0 8.0 0.00 0.00 0.00 87 1006.1
20260506111511 22 173 3.2 16.1 0.00 0.00 0.00 87 1006.2
20260506110010 22 159 6.4 17.7 0.00 0.00 0.00 87 1006.3
20260506104510 22 146 1.6 14.5 0.00 0.00 0.00 87 1006.3
20260506103008 22 163 4.8 14.5 0.00 0.00 0.00 87 1006.2
20260506101507 22 243 4.8 16.1 0.00 0.00 0.00 87 1006.2
20260506100007 22 194 4.8 12.9 0.00 0.00 0.00 87 1006.0
20260506094506 22 178 6.4 16.1 0.00 0.00 0.00 87 1006.0
20260506093011 22 5 4.8 12.9 0.00 0.00 0.00 87 1006.1
20260506091503 22 240 9.7 20.9 0.00 0.00 0.00 87 1005.8
20260506090002 22 202 8.0 20.9 0.00 0.00 0.00 86 1006.0
20260506084603 22 182 3.2 14.5 0.00 0.00 0.00 86 1005.9
20260506083058 22 216 1.6 9.7 0.00 0.00 0.00 86 1005.6
20260506081556 22 51 4.8 12.9 0.00 0.00 0.00 86 1005.8
20260506080107 22 226 4.8 19.3 0.00 0.00 0.00 85 1005.9
20260506073102 23 65 4.8 16.1 0.00 0.00 0.00 85 1005.9
20260506071548 23 236 8.0 20.9 0.00 0.00 0.00 85 1006.2
20260506061556 23 52 3.2 14.5 0.00 0.00 0.00 84 1006.5